Погода в Нинбо

Китай     29°52′31″N   121°31′47″E
темп.,
°C
ветер,
м/с
пор.,
м/с
влажн.,
%
обл.,
%
осадки,
мм/ч
давл.,
гПа
погр.,
м
21 мая, сб
сб2123:00+17сз2297100 0.0 1011111
02:00+17сз1497100 0.0 1010175
05:00+16сз259780 0.1 1011180
08:00+18ссз238895 0.2 1012404
11:00+20ссв337965 0.6 1012816
14:00+22св436943 0.7 1011994
17:00+20всв33756 0.0 1011603
20:00+16в118830 0.0 101237
22 мая, вс
вс2223:00+16ююв2291100 0.0 101241
02:00+15ю2291100 0.0 101058
05:00+15ююв1190100 0.0 101019
08:00+20ююв256796 0.0 1011390
11:00+25ююв4546100 0.0 10111054
14:00+26ююв4543100 0.0 10091315
17:00+22юв4859100 0.0 1009367
20:00+18юв3773100 0.0 1011192
23 мая, пн
пн2323:00+16ююв3782100 0.0 1011162
02:00+15ююв2489100 0.0 101091
05:00+14ю24937 0.0 101084
08:00+21ююв47685 0.0 1012518
11:00+26ююв57470 0.0 10121277
14:00+27ююв68495 0.0 10111651
17:00+23ююв6105813 0.0 10121155
20:00+19ююв5108116 0.0 1014602
24 мая, вт
вт2423:00+17ююв4118699 0.0 1014552
02:00+17ююв3991100 0.0 1013407
05:00+17ююв3894100 0.0 1013297
08:00+21ююв5976100 0.0 1014730
11:00+24ююв5768100 0.0 10141174
14:00+24ююв6867100 0.1 10121035
17:00+22ююв5874100 0.0 1012843
20:00+20ююв41084100 0.0 1012537
25 мая, ср
ср2523:00+19ююв4987100 0.0 1012435
02:00+19ююв3997100 1.0 1011391
05:00+19юв2898100 2.1 1010375
08:00+19юв3797100 3.1 1011382
11:00+20юв2597100 1.8 1010419
14:00+19ссв1299100 18.4 1008168
17:00+19ю4998100 15.7 1008559
20:00+18ююв139977 16.4 1009117